DW1183 League City TX US current weather conditions

sailwx.info

Wind from 194 at 0 knots gusting 2

Air temperature 26.7° C
Dewpoint 24.7° C

Last reported at 2020-Aug-14 10:01 UTC.
Time now 2020-Aug-14 10:28 UTC

Location: N 29°33' W 095°04'.
View on Google Maps.

See reports from other nearby stations

  
Tides and Currents Weather Stations Pressure Air Temp Water Temp Dewpoint Dewpoint Depression Visibility Wind Speed Wind Dir Waves Ship Positions
date/time (UTC)wind fromknots sea level pressurealtimeterstation pressurevisibilityair tempwater tempwave heightnotes
2020-Aug-14 10:01 194 0 gusting 2 26.7
2020-Aug-14 09:45 198 27.2
2020-Aug-14 09:31 200 27.2
2020-Aug-14 09:15 200 0 gusting 2 27.2
2020-Aug-14 09:01 200 0 gusting 3 27.2
2020-Aug-14 08:46 199 27.2
2020-Aug-14 08:31 189 1 gusting 3 27.2
2020-Aug-14 08:15 188 0 gusting 2 27.2
2020-Aug-14 08:00 188 0 gusting 2 27.2
2020-Aug-14 07:46 179 0 gusting 3 27.2
2020-Aug-14 07:31 192 0 gusting 2 27.2
2020-Aug-14 07:17 193 27.2
2020-Aug-14 07:01 199 0 gusting 2 27.8
2020-Aug-14 06:45 199 0 gusting 2 27.8
2020-Aug-14 06:30 199 27.8
2020-Aug-14 06:15 199 0 gusting 2 27.8
2020-Aug-14 06:01 199 0 gusting 3 27.8
2020-Aug-14 05:46 167 1 gusting 6 27.8
2020-Aug-14 05:30 185 1 gusting 3 28.3
2020-Aug-14 05:15 159 1 gusting 4 28.3
2020-Aug-14 05:00 146 0 gusting 3 28.3
2020-Aug-14 04:45 179 1 gusting 5 28.3
2020-Aug-14 04:30 194 1 gusting 5 28.3
2020-Aug-14 04:15 157 1 gusting 4 28.3
2020-Aug-14 04:00 194 2 gusting 6 28.3
2020-Aug-14 03:45 182 2 gusting 5 28.9
2020-Aug-14 03:30 186 2 gusting 6 28.9
2020-Aug-14 03:15 213 2 gusting 5 28.9
2020-Aug-14 03:00 148 2 gusting 7 28.9
2020-Aug-14 02:45 190 2 gusting 5 28.9
2020-Aug-14 02:30 188 2 gusting 5 29.4
2020-Aug-14 02:15 183 2 gusting 6 29.4
2020-Aug-14 02:00 144 2 gusting 7 30.0
2020-Aug-14 01:45 196 2 gusting 6 30.0
2020-Aug-14 01:30 170 3 gusting 6 30.6
2020-Aug-14 01:15 166 2 gusting 6 30.6
2020-Aug-14 01:00 150 3 gusting 7 31.1
2020-Aug-14 00:45 157 2 gusting 7 31.7
2020-Aug-14 00:17 144 3 gusting 9 32.8
2020-Aug-14 00:02 173 2 gusting 6 33.3
2020-Aug-13 23:01 144 3 gusting 10 33.9
2020-Aug-13 22:46 168 5 gusting 9 33.9
2020-Aug-13 22:32 190 3 gusting 8 33.9
2020-Aug-13 22:16 164 4 gusting 7 33.9
2020-Aug-13 22:03 185 3 gusting 7 33.9
2020-Aug-13 21:47 146 3 gusting 9 34.4
2020-Aug-13 21:31 167 4 gusting 10 33.9
2020-Aug-13 21:17 143 3 gusting 6 33.9
2020-Aug-13 21:02 140 33.9
2020-Aug-13 20:47 147 1 gusting 6 33.9
2020-Aug-13 20:31 153 3 gusting 6 33.9
2020-Aug-13 20:16 267 0 gusting 6 35.0
2020-Aug-13 20:01 146 1 gusting 6 34.4
2020-Aug-13 19:46 134 0 gusting 3 33.9
2020-Aug-13 19:31 130 0 gusting 6 34.4
2020-Aug-13 19:15 164 1 gusting 6 35.0
2020-Aug-13 19:00 155 1 gusting 5 35.0
2020-Aug-13 18:45 256 34.4
2020-Aug-13 18:30 273 1 gusting 6 33.9
2020-Aug-13 18:15 304 0 gusting 4 33.3
2020-Aug-13 18:01 225 0 gusting 4 33.3
2020-Aug-13 17:45 183 0 gusting 4 33.3
2020-Aug-13 17:30 290 1 gusting 4 32.8
2020-Aug-13 17:15
2020-Aug-13 17:00
2020-Aug-13 16:45
2020-Aug-13 16:31 233 2 gusting 5 31.7
2020-Aug-13 16:16 221 1 gusting 6 31.7
2020-Aug-13 16:02 205 1 gusting 5 31.7
2020-Aug-13 15:46 221 2 gusting 5 31.1
2020-Aug-13 15:31 203 3 gusting 6 31.1
2020-Aug-13 15:16 216 2 gusting 6 30.6
2020-Aug-13 15:00 225 3 gusting 6 30.0
2020-Aug-13 14:46 213 3 gusting 6 30.0
2020-Aug-13 14:30 209 1 gusting 6 29.4
2020-Aug-13 14:15 229 2 gusting 6 28.9
2020-Aug-13 14:00 210 1 gusting 4 28.3
2020-Aug-13 13:47 204 1 gusting 4 28.3
2020-Aug-13 13:31 207 0 gusting 4 27.8
2020-Aug-13 13:16 181 27.2
2020-Aug-13 13:01 178 0 gusting 3 27.2
2020-Aug-13 12:47 175 27.2
2020-Aug-13 12:31 175 26.7
2020-Aug-13 12:16 175 27.2
2020-Aug-13 12:00 175 27.2
2020-Aug-13 11:46 175 26.7
2020-Aug-13 11:31 175 27.2
2020-Aug-13 11:15 174 27.2
2020-Aug-13 11:01 181 27.2
2020-Aug-13 10:46 155 0 gusting 4 27.2
2020-Aug-13 10:31 155 27.2
2020-Aug-13 10:15 155 27.2
2020-Aug-13 10:00 155 27.2
2020-Aug-13 09:45 155 27.2
2020-Aug-13 09:31 155 27.2
2020-Aug-13 09:01 155 27.8
2020-Aug-13 08:45 154 27.8
2020-Aug-13 08:30 154 27.8
2020-Aug-13 08:15 154 27.8
2020-Aug-13 08:00 154 27.8
2020-Aug-13 07:45 154 27.8
2020-Aug-13 07:30 154 27.8
2020-Aug-13 07:15 154 27.8
2020-Aug-13 07:00 154 27.8
2020-Aug-13 06:45 154 27.8
2020-Aug-13 06:30 154 0 gusting 2 28.3
2020-Aug-13 06:15 135 28.3
2020-Aug-13 06:00 157 1 gusting 4 28.3
2020-Aug-13 05:46 194 0 gusting 3 28.3
2020-Aug-13 05:31 151 28.3
2020-Aug-13 05:15 184 0 gusting 5 28.3
2020-Aug-13 05:00 211 0 gusting 4 28.3
2020-Aug-13 04:45 155 0 gusting 2 28.3
2020-Aug-13 04:30 157 0 gusting 4 28.9
2020-Aug-13 04:15 164 0 gusting 3 28.9
2020-Aug-13 04:00 150 0 gusting 6 28.9
2020-Aug-13 03:45 184 1 gusting 4 28.9
2020-Aug-13 03:30 153 1 gusting 5 28.9
2020-Aug-13 03:15 184 2 gusting 6 29.4
2020-Aug-13 03:00 177 2 gusting 6 29.4
2020-Aug-13 02:45 175 2 gusting 6 29.4
2020-Aug-13 02:30 213 2 gusting 6 29.4
2020-Aug-13 02:15 123 1 gusting 6 29.4
2020-Aug-13 02:00 187 2 gusting 5 30.0
2020-Aug-13 01:45 184 3 gusting 6 30.0
2020-Aug-13 01:30 150 3 gusting 6 30.0
2020-Aug-13 01:15 186 3 gusting 8 30.6
2020-Aug-13 01:02 123 4 gusting 7 30.6
2020-Aug-13 00:46 159 4 gusting 8 31.1
2020-Aug-13 00:31 186 2 gusting 8 31.1
2020-Aug-13 00:30 167 4 gusting 8 31.1
2020-Aug-13 00:17 148 4 gusting 8 31.7
2020-Aug-13 00:01 161 4 gusting 8 32.2
2020-Aug-12 23:46 149 3 gusting 8 32.8
2020-Aug-12 23:33 150 3 gusting 9 33.3
2020-Aug-12 23:17 146 4 gusting 9 33.3
2020-Aug-12 23:01 132 4 gusting 11 33.3
2020-Aug-12 22:47 151 3 gusting 7 33.3
2020-Aug-12 22:32 137 5 gusting 8 33.9
2020-Aug-12 22:02 183 3 gusting 9 33.9
2020-Aug-12 21:46 142 3 gusting 8 33.9
2020-Aug-12 21:31 121 2 gusting 9 34.4
2020-Aug-12 21:16 133 3 gusting 8 33.9
2020-Aug-12 21:01 157 4 gusting 7 33.9
2020-Aug-12 20:45 209 2 gusting 7 34.4
2020-Aug-12 20:31 176 4 gusting 7 34.4
2020-Aug-12 20:16 169 3 gusting 9 34.4
2020-Aug-12 20:01 105 2 gusting 7 34.4
2020-Aug-12 19:46 221 2 gusting 6 33.9
2020-Aug-12 19:31 158 1 gusting 9 34.4
2020-Aug-12 19:16 146 3 gusting 7 34.4
2020-Aug-12 19:00 207 3 gusting 8 34.4
2020-Aug-12 18:45 227 0 gusting 5 34.4
2020-Aug-12 18:31 215 2 gusting 6 33.9
2020-Aug-12 18:16 221 1 gusting 4 33.9
2020-Aug-12 18:00 214 2 gusting 5 33.9
2020-Aug-12 17:46 159 0 gusting 5 33.9
2020-Aug-12 17:30 224 1 gusting 6 33.3
2020-Aug-12 17:15 213 2 gusting 5 32.8
2020-Aug-12 17:00 190 1 gusting 4 32.8
2020-Aug-12 16:32 217 2 gusting 7 32.2
2020-Aug-12 16:16 212 3 gusting 6 32.2
2020-Aug-12 16:01 207 3 gusting 9 31.7
2020-Aug-12 15:47 231 4 gusting 7 31.7
2020-Aug-12 15:31 224 4 gusting 7 31.1
2020-Aug-12 15:16 211 3 gusting 7 31.1
2020-Aug-12 15:01 221 3 gusting 6 30.6
2020-Aug-12 14:46 218 3 gusting 7 30.0
2020-Aug-12 14:31 178 1 gusting 6 30.0
2020-Aug-12 14:15 213 2 gusting 5 29.4
2020-Aug-12 14:00 209 1 gusting 4 28.9
2020-Aug-12 13:45 207 28.3
2020-Aug-12 13:30 207 27.8
2020-Aug-12 13:15 186 27.8
2020-Aug-12 13:00 192 27.2
2020-Aug-12 12:45 192 27.2
2020-Aug-12 12:30 192 27.2
2020-Aug-12 12:15 192 27.2
2020-Aug-12 12:00 192 0 gusting 3 27.2
2020-Aug-12 11:47 192 27.2
2020-Aug-12 11:32 192 27.2
2020-Aug-12 11:16 184 27.2
2020-Aug-12 11:02 178 0 gusting 2 27.2
2020-Aug-12 10:47 193 0 gusting 3 27.2
2020-Aug-12 10:31 174 27.2